Hlavní strana
METAR-TAF:

METAR-TAF

Letiště :

Dalton Municipal Airport

Dalton, Georgie, Spojené státy americké

zeměpisná šířka: 34-43-18N, zeměpisná délka: 084-52-09W, výška: 216 m

Aktuální stav počasí

Zpráva byla vytvořena před 20 minutami, v 13:35 UTC
Severní vítr 12 kt s nárazy do 15 kt
Teplota 6°C
Vlhkost vzduchu 65%
Tlak 1027 hPa
Viditelnost: 16.1 km
Jasno

METAR: KDNN 181335Z AUTO 35012G15KT 10SM CLR 06/00 A3033 RMK AO2

Čas: 09:55 (13:55 UTC)


TAF: chybějící

Stav a předpovědi počasí z více než 4 000 letišť (zprávy METAR a TAF).

Červené a žluté tečky na mapě představují dostupné meteorologické stanice.

Když kurzor umístíte na tečku, zobrazí se název stanice.

Pak kliknutím zobrazíte stav a předpověď počasí.

Chcete-li změnit mapu, kliknutím na zelené tlačítko se znaménkem +mapu přiblížíte, kliknutím na zelené tlačítko se znaménkem – mapu oddálíte a kliknutím na zelené šipky přejdete na sousední mapy.


METAR-TAF: